Reno, NV

4:36 PM PST on December 12, 2019 (GMT -0800)
Reno-Tahoe International

Weather History for KRNO - August, 2019

Change the Weather History Date:

Tuesday, August 13, 2019

  Actual Average Record
Temperature  
Mean Temperature 78 °F 74 °F  
Max Temperature 95 °F 91 °F 103 °F (1998)
Min Temperature 62 °F 57 °F 36 °F (1962)
Degree Days  
Heating Degree Days 0 0  
Month to date heating degree days 0 0  
Since 1 June heating degree days 15 61  
Since 1 July heating degree days 0 5  
Cooling Degree Days 14 9  
Month to date cooling degree days 146 130  
Year to date cooling degree days 737 617  
Since 1 June cooling degree days 723 580  
Growing Degree Days 28 (Base 50)    
Moisture  
Dew Point 39 °F    
Average Humidity 27    
Maximum Humidity 48    
Minimum Humidity 10    
Precipitation  
Precipitation 0.00 in 0.01 in 0.95 in (1931)
Month to date precipitation T 0.12  
Year to date precipitation 8.76 4.58  
Snow  
Snow 0.00 in 0.00 in 0.00 in ()
Month to date snowfall 0.0 0.0  
Since 1 June snowfall 0.0 T  
Since 1 July snowfall 0.0 0.0  
Snow Depth 0.00 in    
Sea Level Pressure  
Sea Level Pressure 29.97 in    
Wind  
Wind Speed 5 mph ()    
Max Wind Speed 18 mph    
Max Gust Speed 25 mph    
Visibility 10.0 miles    
Events      
T = Trace of Precipitation, MM = Missing Value Source: Averaged Metar Reports

Daily Weather History Graph

Daily Weather History Graph

Search for Another Location

Airport or City:

Astronomy

Aug. 13, 2019 Rise Set
Actual Time 6:09 AM PDT 7:57 PM PDT
Civil Twilight 5:40 AM PDT 8:26 PM PDT
Nautical Twilight 5:05 AM PDT 9:01 PM PDT
Astronomical Twilight 4:27 AM PDT 9:38 PM PDT
Moon 7:15 PM PDT 4:16 AM PDT
Length of Visible Light 14h 45m
Length of Day
13h 47m
Waxing Gibbous, 97% of the Moon is Illuminated
Aug 13
Waxing Gibbous
Aug 15
Full
Aug 23
Last Quarter
Aug 30
New
Sep 5
First Quarter

Hourly Weather History & Observations

Time (PDT) Temp. Dew Point Humidity Pressure Visibility Wind Dir Wind Speed Gust Speed Precip Events Conditions
12:55 AM 71.1 °F 43.0 °F 36% 29.98 in 10.0 mi West 3.5 mph - N/A   Clear
1:55 AM 69.1 °F 43.0 °F 39% 29.97 in 10.0 mi West 3.5 mph - N/A   Clear
2:55 AM 66.0 °F 44.1 °F 45% 29.98 in 10.0 mi WSW 4.6 mph - N/A   Clear
3:55 AM 64.9 °F 43.0 °F 45% 29.98 in 10.0 mi West 5.8 mph - N/A   Clear
4:55 AM 64.0 °F 42.1 °F 45% 29.99 in 10.0 mi West 4.6 mph - N/A   Clear
5:55 AM 62.1 °F 42.1 °F 48% 30.01 in 10.0 mi WNW 5.8 mph - N/A   Clear
6:55 AM 63.0 °F 43.0 °F 48% 30.02 in 10.0 mi WSW 6.9 mph - N/A   Clear
7:55 AM 66.0 °F 43.0 °F 43% 30.02 in 10.0 mi South 3.5 mph - N/A   Clear
8:55 AM 71.1 °F 43.0 °F 36% 30.02 in 10.0 mi Calm Calm - N/A   Clear
9:55 AM 75.0 °F 42.1 °F 31% 30.01 in 10.0 mi Calm Calm - N/A   Clear
10:55 AM 80.1 °F 42.1 °F 26% 30.00 in 10.0 mi ENE 4.6 mph - N/A   Partly Cloudy
11:55 AM 84.9 °F 42.1 °F 22% 29.98 in 10.0 mi Calm Calm - N/A   Partly Cloudy
12:55 PM 87.1 °F 41.0 °F 20% 29.96 in 10.0 mi SE 5.8 mph - N/A   Partly Cloudy
1:55 PM 91.9 °F 37.9 °F 15% 29.94 in 10.0 mi WNW 8.1 mph - N/A   Partly Cloudy
2:55 PM 93.9 °F 37.0 °F 14% 29.92 in 10.0 mi Variable 5.8 mph - N/A   Partly Cloudy
3:55 PM 95.0 °F 37.0 °F 13% 29.91 in 10.0 mi SW 5.8 mph - N/A   Partly Cloudy
4:55 PM 95.0 °F 30.9 °F 10% 29.90 in 10.0 mi WNW 10.4 mph - N/A   Partly Cloudy
5:55 PM 93.0 °F 30.9 °F 11% 29.91 in 10.0 mi WNW 13.8 mph - N/A   Partly Cloudy
6:55 PM 90.0 °F 33.1 °F 13% 29.92 in 10.0 mi WNW 15.0 mph - N/A   Partly Cloudy
7:55 PM 86.0 °F 30.9 °F 14% 29.94 in 10.0 mi WNW 10.4 mph - N/A   Partly Cloudy
8:55 PM 82.9 °F 33.1 °F 17% 29.97 in 10.0 mi NNW 11.5 mph - N/A   Partly Cloudy
9:55 PM 81.0 °F 34.0 °F 18% 30.00 in 10.0 mi NW 9.2 mph - N/A   Clear
10:55 PM 77.0 °F 37.0 °F 24% 30.01 in 10.0 mi NE 3.5 mph - N/A   Clear
11:55 PM 75.0 °F 37.0 °F 25% 30.01 in 10.0 mi West 4.6 mph - N/A   Clear